ANZ705M NZCH-NZNV

Flight info

Callsign ANZ705M
Flight time N/A
Altitude 20000
Route IDARA Y676 NV
Aircraft AT76/M-SDFGIRY/S

Departure

Time 2026-05-03 21:50
Airport Christchurch International Airport (NZCH)

Arrival

Time N/A
Airport Invercargill Airport (NZNV)
Time Latitude Longitude Altitude Speed Heading
2026-05-03 21:33 -43.49142 172.54037 104 ft 0 kts 84°
2026-05-03 21:47 -43.49145 172.54046 106 ft 1 kts 125°
2026-05-03 21:48 -43.49155 172.54044 106 ft 2 kts 199°
2026-05-03 21:48 -43.49164 172.54016 106 ft 5 kts 263°
2026-05-03 21:48 -43.49148 172.53965 104 ft 7 kts 301°
2026-05-03 21:48 -43.49118 172.53897 106 ft 9 kts 302°
2026-05-03 21:49 -43.49064 172.53802 104 ft 18 kts 309°
2026-05-03 21:49 -43.48961 172.53632 104 ft 27 kts 310°
2026-05-03 21:49 -43.48857 172.53462 108 ft 19 kts 312°
2026-05-03 21:49 -43.48797 172.53365 110 ft 8 kts 301°
2026-05-03 21:50 -43.48811 172.53310 110 ft 12 kts 219°
2026-05-03 21:50 -43.49063 172.53021 111 ft 79 kts 220°
2026-05-03 21:50 -43.49614 172.52380 173 ft 121 kts 221°
2026-05-03 21:50 -43.50253 172.51670 735 ft 119 kts 219°
2026-05-03 21:51 -43.50938 172.50901 1109 ft 133 kts 226°
2026-05-03 21:51 -43.51478 172.49896 1704 ft 129 kts 234°
2026-05-03 21:51 -43.52044 172.48896 2039 ft 135 kts 231°
2026-05-03 21:51 -43.52635 172.47823 2266 ft 149 kts 237°
2026-05-03 21:52 -43.53223 172.46559 2454 ft 166 kts 237°
2026-05-03 21:52 -43.53919 172.45203 2689 ft 177 kts 236°
2026-05-03 21:52 -43.54579 172.43758 3058 ft 179 kts 241°
2026-05-03 21:52 -43.55198 172.42258 3449 ft 181 kts 241°
2026-05-03 21:53 -43.55825 172.40750 3848 ft 181 kts 241°
2026-05-03 21:53 -43.56469 172.39258 4244 ft 181 kts 239°
2026-05-03 21:53 -43.57137 172.37787 4635 ft 181 kts 238°
2026-05-03 21:53 -43.57825 172.36337 5020 ft 181 kts 238°
2026-05-03 21:54 -43.58605 172.34977 5375 ft 182 kts 217°
2026-05-03 21:54 -43.59700 172.34100 5666 ft 183 kts 210°
2026-05-03 21:54 -43.60822 172.33255 6015 ft 184 kts 210°
2026-05-03 21:54 -43.61954 172.32421 6367 ft 185 kts 209°
2026-05-03 21:55 -43.63087 172.31587 6716 ft 185 kts 209°
2026-05-03 21:55 -43.64226 172.30744 7046 ft 186 kts 210°
2026-05-03 21:55 -43.65364 172.29901 7367 ft 186 kts 210°
2026-05-03 21:55 -43.66504 172.29051 7686 ft 186 kts 210°
2026-05-03 21:56 -43.67643 172.28200 8016 ft 186 kts 210°
2026-05-03 21:56 -43.68786 172.27345 8326 ft 187 kts 210°
2026-05-03 21:56 -43.69927 172.26491 8638 ft 187 kts 210°
2026-05-03 21:56 -43.71071 172.25634 8947 ft 187 kts 211°
2026-05-03 21:57 -43.72217 172.24774 9250 ft 188 kts 211°
2026-05-03 21:57 -43.73367 172.23910 9560 ft 188 kts 211°
2026-05-03 21:57 -43.74515 172.23046 9875 ft 188 kts 211°
2026-05-03 21:57 -43.75667 172.22180 10175 ft 189 kts 211°
2026-05-03 21:58 -43.76824 172.21311 10468 ft 189 kts 211°
2026-05-03 21:58 -43.77983 172.20438 10721 ft 190 kts 211°
2026-05-03 21:58 -43.79133 172.19573 10971 ft 191 kts 211°
2026-05-03 21:58 -43.80302 172.18691 11228 ft 192 kts 212°
2026-05-03 21:59 -43.81477 172.17806 11490 ft 193 kts 212°
2026-05-03 21:59 -43.82657 172.16917 11743 ft 193 kts 212°
2026-05-03 21:59 -43.83841 172.16023 11992 ft 194 kts 212°
2026-05-03 21:59 -43.85032 172.15122 12251 ft 195 kts 212°
2026-05-03 22:00 -43.86225 172.14222 12498 ft 196 kts 212°
2026-05-03 22:00 -43.87424 172.13316 12739 ft 197 kts 212°
2026-05-03 22:00 -43.88627 172.12406 12986 ft 197 kts 212°
2026-05-03 22:00 -43.89836 172.11493 13225 ft 198 kts 212°
2026-05-03 22:01 -43.91049 172.10575 13469 ft 199 kts 213°
2026-05-03 22:01 -43.92266 172.09653 13709 ft 200 kts 213°
2026-05-03 22:01 -43.93491 172.08725 13946 ft 201 kts 213°
2026-05-03 22:01 -43.94717 172.07794 14176 ft 202 kts 213°
2026-05-03 22:02 -43.95950 172.06858 14393 ft 202 kts 213°
2026-05-03 22:02 -43.97190 172.05917 14582 ft 203 kts 213°
2026-05-03 22:02 -43.98433 172.04973 14767 ft 204 kts 213°
2026-05-03 22:02 -43.99682 172.04024 14949 ft 205 kts 213°
2026-05-03 22:03 -44.00937 172.03071 15145 ft 206 kts 213°
2026-05-03 22:03 -44.02196 172.02113 15335 ft 207 kts 213°
2026-05-03 22:03 -44.03441 172.01118 15509 ft 206 kts 218°
2026-05-03 22:03 -44.04605 171.99943 15702 ft 207 kts 221°
2026-05-03 22:04 -44.05756 171.98741 15889 ft 207 kts 220°
2026-05-03 22:04 -44.06915 171.97542 16060 ft 208 kts 222°
2026-05-03 22:04 -44.08024 171.96253 16227 ft 208 kts 225°
2026-05-03 22:04 -44.09073 171.94869 16400 ft 208 kts 228°
2026-05-03 22:05 -44.10079 171.93453 16562 ft 209 kts 229°
2026-05-03 22:05 -44.11114 171.91995 16724 ft 209 kts 228°
2026-05-03 22:05 -44.12141 171.90546 16878 ft 210 kts 229°
2026-05-03 22:05 -44.13168 171.89094 17030 ft 211 kts 228°
2026-05-03 22:06 -44.14200 171.87638 17199 ft 211 kts 229°
2026-05-03 22:06 -44.15237 171.86181 17377 ft 212 kts 228°
2026-05-03 22:06 -44.16284 171.84722 17545 ft 213 kts 228°
2026-05-03 22:06 -44.17321 171.83281 17707 ft 214 kts 228°
2026-05-03 22:07 -44.18376 171.81813 17868 ft 215 kts 227°
2026-05-03 22:07 -44.19435 171.80341 18018 ft 215 kts 227°
2026-05-03 22:07 -44.20499 171.78861 18174 ft 216 kts 227°
2026-05-03 22:07 -44.21565 171.77376 18314 ft 217 kts 227°
2026-05-03 22:08 -44.22637 171.75888 18460 ft 218 kts 227°
2026-05-03 22:08 -44.23709 171.74394 18594 ft 218 kts 227°
2026-05-03 22:08 -44.24788 171.72892 18731 ft 219 kts 227°
2026-05-03 22:08 -44.25865 171.71389 18852 ft 220 kts 227°
2026-05-03 22:09 -44.26946 171.69881 18966 ft 220 kts 227°
2026-05-03 22:09 -44.28028 171.68372 19077 ft 220 kts 227°
2026-05-03 22:09 -44.29111 171.66858 19188 ft 220 kts 227°
2026-05-03 22:10 -44.31283 171.63825 19389 ft 222 kts 228°
2026-05-03 22:10 -44.32375 171.62301 19529 ft 222 kts 228°
2026-05-03 22:10 -44.33466 171.60772 19652 ft 222 kts 228°
2026-05-03 22:10 -44.34557 171.59241 19787 ft 222 kts 228°
2026-05-03 22:11 -44.35649 171.57714 19900 ft 223 kts 228°
2026-05-03 22:11 -44.36754 171.56167 19952 ft 227 kts 228°
2026-05-03 22:11 -44.37879 171.54590 19977 ft 231 kts 227°
2026-05-03 22:11 -44.39022 171.52985 19989 ft 235 kts 227°
2026-05-03 22:12 -44.40183 171.51353 19995 ft 239 kts 227°
2026-05-03 22:12 -44.41362 171.49697 19994 ft 242 kts 228°
2026-05-03 22:12 -44.42554 171.48023 19993 ft 244 kts 227°
2026-05-03 22:12 -44.43757 171.46328 19998 ft 246 kts 227°
2026-05-03 22:13 -44.44971 171.44623 19991 ft 248 kts 227°
2026-05-03 22:13 -44.46176 171.42924 19998 ft 250 kts 227°
2026-05-03 22:13 -44.47419 171.41173 19993 ft 251 kts 227°
2026-05-03 22:13 -44.48652 171.39434 19994 ft 252 kts 227°
2026-05-03 22:14 -44.49871 171.37711 19996 ft 253 kts 227°
2026-05-03 22:14 -44.51113 171.35961 19997 ft 253 kts 227°
2026-05-03 22:14 -44.52356 171.34203 19993 ft 254 kts 228°
2026-05-03 22:14 -44.53601 171.32446 19995 ft 254 kts 227°
2026-05-03 22:15 -44.54847 171.30682 19998 ft 255 kts 227°
2026-05-03 22:15 -44.56094 171.28914 19995 ft 255 kts 227°
2026-05-03 22:15 -44.57342 171.27152 19995 ft 255 kts 228°
2026-05-03 22:15 -44.58593 171.25383 19993 ft 255 kts 228°
2026-05-03 22:16 -44.59839 171.23611 20000 ft 255 kts 228°
2026-05-03 22:16 -44.61086 171.21839 19998 ft 255 kts 228°
2026-05-03 22:16 -44.62332 171.20069 19999 ft 255 kts 228°
2026-05-03 22:16 -44.63573 171.18303 19995 ft 254 kts 228°
2026-05-03 22:17 -44.64817 171.16537 19993 ft 254 kts 228°
2026-05-03 22:17 -44.66061 171.14768 20002 ft 254 kts 229°
2026-05-03 22:17 -44.67305 171.13000 19995 ft 254 kts 229°
2026-05-03 22:17 -44.68544 171.11229 19995 ft 254 kts 229°
2026-05-03 22:18 -44.69525 171.09828 19998 ft 254 kts 229°